カタログに戻る

GHGSAT-C7

運用中科学SSO
NORAD 56209·PAYLOAD·🇨🇦 Canada

打ち上げ Apr 15, 2023 から Vandenberg Space Force Base

Loading…

次のパス (今後24時間)

TLE

最新Source: Space-Track

元期: Sep 14, 2026, 21:21 UTC

1 56209U 23054AH  26257.88993473  .00010961  00000-0  18632-3 0  9999
2 56209  97.2910 167.4594 0008939  77.9898 282.2356 15.51574615192296

AllMySatでGHGSAT-C7をリアルタイム追跡

Download on the App Store